Regional Weather Roundup
Issued by NWS

Current Version | Previous Version | Text Only | Print | Product List | Glossary On
Versions: 1 2 3 4 5 6 7 8 9 10 11 12 13 14 15 16 17 18 19 20 21 22 23 24 25 26 27 28 29 30 31 32 33 34 35 36 37 38 39 40 41 42 43 44 45 46 47 48 49 50
000
ASUS44 KOUN 302000
RWROK

WEATHER ROUNDUP FOR OKLAHOMA
NATIONAL WEATHER SERVICE NORMAN OK
300 PM CDT MON MAR 30 2015

NOTE: "FAIR" INDICATES FEW OR NO CLOUDS BELOW 12,000 FEET WITH NO
      SIGNIFICANT WEATHER AND/OR OBSTRUCTIONS TO VISIBILITY.

OKZ001>007-009>012-014-015-017-302100-
NORTHWEST OKLAHOMA AND THE PANHANDLE

CITY           SKY/WX    TMP DP  RH WIND       PRES   REMARKS
GAGE           FAIR      80  30  16 SW20G30   30.07F
GUYMON         FAIR      82  33  17 SW29G38   30.03F
ENID/WOODRING  MOSUNNY   77  41  27 S13G21    30.08F
$$

OKZ016-021>023-033>039-044-045-302100-
SOUTHWEST OKLAHOMA

CITY           SKY/WX    TMP DP  RH WIND       PRES   REMARKS
LAWTON/REGL    FAIR      77  43  29 SE6       30.11F
FREDERICK      FAIR      75  44  33 S7        30.10F
CLINTON        FAIR      75  39  27 S13G20    30.13F
HOBART         FAIR      75  42  30 S12       30.12F
$$

OKZ018>020-024>031-302100-
CENTRAL OKLAHOMA

CITY           SKY/WX    TMP DP  RH WIND       PRES   REMARKS
OKLAHOMA CITY  FAIR      76  38  25 S10       30.11F
OKC/WILEY POST FAIR      77  39  25 SE7       30.11F
OKC/TINKER AFB FAIR      77  37  23 SW10      30.10F
STILLWATER     FAIR      77  38  24 SE15G22   30.10F
GUTHRIE        FAIR      77  34  21 MISG      30.10F
$$

OKZ008-013-054>072-302100-
NORTHEAST OKLAHOMA

CITY           SKY/WX    TMP DP  RH WIND       PRES   REMARKS
TULSA          FAIR      74  37  26 VRB5      30.10F
PONCA CITY     FAIR      75  37  25 SW10G20   30.09F
BARTLESVILLE   FAIR      76  34  21 S9        30.11F
MUSKOGEE       FAIR      76  41  28 S10       30.13F
$$

OKZ032-040>043-046>053-073>077-302100-
SOUTH CENTRAL/SOUTHEAST OKLAHOMA

CITY           SKY/WX    TMP DP  RH WIND       PRES   REMARKS
MCALESTER      FAIR      78  42  27 S9        30.12F
$$




USA.gov is the U.S. government's official web portal to all federal, state and local government web resources and services.